EW1587 Weather Reports


Display with metric or nautical units.
time (UTC)temp
F
wind
direction
speed
MPH
gust
MPH
rain 1hr
in
rain 24hr
in
rain mn
in
humidity
%
barometer
mb
20260904141017 67 71 1.0 4.0 0.00 0.00 0.00 100 1010.3
20260904140516 67 67 1.0 4.0 0.00 0.00 0.00 100 1010.2
20260904140016 67 63 1.0 4.0 0.00 0.00 0.00 100 1010.1
20260904135516 67 57 1.0 4.0 0.00 0.00 0.00 100 1010.1
20260904135016 67 69 1.0 5.0 0.00 0.00 0.00 100 1010.1
20260904134521 67 60 1.0 4.0 0.00 0.00 0.00 100 1010.1
20260904134016 67 90 0.0 4.0 0.00 0.00 0.00 100 1010.0
20260904133513 67 96 0.0 4.0 0.00 0.00 0.00 100 1009.8
20260904133013 67 101 1.0 5.0 0.00 0.00 0.00 100 1009.8
20260904132513 66 64 3.0 5.0 0.00 0.00 0.00 100 1009.8
20260904132012 66 63 3.0 6.0 0.00 0.00 0.00 100 1009.8
20260904131512 66 73 4.0 5.0 0.00 0.00 0.00 100 1009.8
20260904131011 66 69 3.0 5.0 0.00 0.00 0.00 100 1009.7
20260904130511 66 83 2.0 6.0 0.00 0.00 0.00 100 1009.7
20260904130023 66 73 4.0 6.0 0.00 0.00 0.00 100 1009.7
20260904125512 66 69 3.0 6.0 0.00 0.00 0.00 100 1009.6
20260904125009 66 70 4.0 6.0 0.00 0.00 0.00 100 1009.6
20260904124509 66 72 3.0 7.0 0.00 0.00 0.00 100 1009.4
20260904124010 66 138 4.0 7.0 0.00 0.00 0.00 100 1009.4
20260904123508 66 77 2.0 9.0 0.00 0.00 0.00 100 1009.3
20260904123015 66 68 4.0 9.0 0.00 0.00 0.00 100 1009.5
20260904122505 66 73 6.0 8.0 0.00 0.00 0.00 100 1009.5
20260904122004 67 70 4.0 8.0 0.00 0.00 0.00 100 1009.4
20260904121503 67 75 3.0 8.0 0.00 0.00 0.00 100 1009.3
20260904121001 67 56 5.0 8.0 0.00 0.00 0.00 100 1009.3
20260904120501 67 62 5.0 8.0 0.00 0.00 0.00 100 1009.3
20260904120112 67 65 4.0 7.0 0.00 0.00 0.00 100 1009.2
20260904120034 67 58 3.0 8.0 0.00 0.00 0.00 100 1009.2
20260904115603 67 79 5.0 7.0 0.00 0.00 0.00 100 1009.1
20260904115059 68 61 5.0 7.0 0.00 0.00 0.00 100 1009.0
20260904114558 68 75 2.0 6.0 0.00 0.00 0.00 100 1009.0
20260904114057 68 79 3.0 7.0 0.00 0.00 0.00 100 1008.9
20260904113556 68 72 5.0 7.0 0.00 0.00 0.00 100 1009.0
20260904113056 68 77 4.0 8.0 0.00 0.00 0.00 100 1008.8
20260904112558 68 68 4.0 6.0 0.00 0.00 0.00 100 1008.8
20260904112056 68 65 3.0 7.0 0.00 0.00 0.00 100 1008.9
20260904111553 69 63 3.0 7.0 0.00 0.00 0.00 100 1008.8
20260904111057 69 72 0.0 7.0 0.00 0.00 0.00 100 1008.8
20260904110552 69 67 0.0 7.0 0.00 0.00 0.00 100 1008.8
20260904110053 70 64 4.0 6.0 0.00 0.00 0.00 100 1008.8
20260904105553 70 65 3.0 8.0 0.00 0.00 0.00 100 1008.8
20260904105049 70 107 2.0 8.0 0.00 0.00 0.00 100 1008.6
20260904104548 70 79 2.0 10.0 0.00 0.00 0.00 100 1008.6
20260904104048 70 64 7.0 10.0 0.00 0.00 0.00 100 1008.6
20260904103547 70 90 0.0 7.0 0.00 0.00 0.00 100 1008.3
20260904103047 70 64 6.0 7.0 0.00 0.00 0.00 100 1008.6
20260904102546 70 136 0.0 6.0 0.00 0.00 0.00 100 1008.3
20260904102045 70 120 4.0 7.0 0.00 0.00 0.00 100 1008.5
20260904101544 70 155 0.0 7.0 0.00 0.00 0.00 100 1008.3
20260904101045 70 91 4.0 8.0 0.00 0.00 0.00 100 1008.5
20260904100545 70 194 1.0 8.0 0.00 0.00 0.00 100 1008.4
20260904100047 70 67 2.0 8.0 0.00 0.00 0.00 100 1008.5
20260904095544 70 103 1.0 5.0 0.00 0.00 0.00 100 1008.4
20260904095044 70 94 0.0 6.0 0.00 0.00 0.00 100 1008.4
20260904094543 70 115 1.0 6.0 0.00 0.00 0.00 100 1008.4
20260904094042 70 64 1.0 5.0 0.00 0.00 0.00 100 1008.5
20260904093542 70 111 0.0 3.0 0.00 0.00 0.00 99 1008.5
20260904093040 70 88 1.0 3.0 0.00 0.00 0.00 100 1008.4
20260904092541 70 101 0.0 3.0 0.00 0.00 0.00 100 1008.2
20260904092040 70 117 0.0 7.0 0.00 0.00 0.00 100 1008.2
20260904091541 70 94 5.0 7.0 0.00 0.00 0.00 99 1008.3
20260904091039 71 82 0.0 8.0 0.00 0.00 0.00 100 1008.2
20260904090539 71 156 0.0 10.0 0.00 0.00 0.00 99 1008.1
20260904090039 71 69 8.0 11.0 0.00 0.00 0.00 100 1008.4
20260904085537 71 79 1.0 15.0 0.00 0.00 0.00 100 1008.1
20260904085040 71 127 1.0 15.0 0.00 0.00 0.00 99 1008.0
20260904084537 70 72 10.0 11.0 0.00 0.00 0.00 98 1008.1
20260904084037 71 82 0.0 1.0 0.00 0.00 0.00 99 1007.8
20260904083535 71 136 0.0 0.0 0.00 0.00 0.00 99 1007.7
20260904083037 71 136 0.0 0.0 0.00 0.00 0.00 99 1007.7
20260904082534 71 136 0.0 0.0 0.00 0.00 0.00 99 1007.7
20260904082034 71 136 0.0 1.0 0.00 0.00 0.00 99 1007.7
20260904081544 71 136 0.0 1.0 0.00 0.00 0.00 99 1007.7
20260904081033 72 83 0.0 0.0 0.00 0.00 0.00 98 1007.6
20260904080533 72 84 0.0 1.0 0.00 0.00 0.00 99 1007.7
20260904080033 72 83 0.0 1.0 0.00 0.00 0.00 99 1007.6
20260904075533 72 107 0.0 1.0 0.00 0.00 0.00 99 1007.6
20260904075032 72 115 0.0 0.0 0.00 0.00 0.00 99 1007.6
20260904074533 72 156 0.0 1.0 0.00 0.00 0.00 99 1007.6
20260904074032 72 156 0.0 1.0 0.00 0.00 0.00 99 1007.6
20260904073536 72 236 0.0 1.0 0.00 0.00 0.00 99 1007.7
20260904073030 71 97 0.0 2.0 0.00 0.00 0.00 98 1007.7
20260904072530 71 90 0.0 2.0 0.00 0.00 0.00 98 1007.7
20260904072032 71 56 0.0 1.0 0.00 0.00 0.00 98 1007.7
20260904071531 71 115 0.0 1.0 0.00 0.00 0.00 97 1007.6
20260904071030 72 97 0.0 0.0 0.00 0.00 0.00 97 1007.6
20260904070529 72 97 0.0 0.0 0.00 0.00 0.00 97 1007.7
20260904070030 72 98 0.0 0.0 0.00 0.00 0.00 97 1007.7
20260904065528 72 97 0.0 0.0 0.00 0.00 0.00 97 1007.7
20260904065027 72 89 0.0 1.0 0.00 0.00 0.00 97 1007.8
20260904064527 72 89 0.0 1.0 0.00 0.00 0.00 97 1007.7
20260904064027 73 100 0.0 1.0 0.00 0.00 0.00 97 1007.7
20260904063526 73 100 0.0 1.0 0.00 0.00 0.00 97 1007.7
20260904063025 73 100 0.0 1.0 0.00 0.00 0.00 96 1007.7
20260904062528 73 92 0.0 1.0 0.00 0.00 0.00 96 1007.7
20260904062024 73 94 0.0 1.0 0.00 0.00 0.00 96 1007.7
20260904061538 73 94 0.0 1.0 0.00 0.00 0.00 96 1007.6
20260904061022 73 96 0.0 1.0 0.00 0.00 0.00 95 1007.6
20260904060522 73 117 0.0 0.0 0.00 0.00 0.00 95 1007.6
20260904060022 73 115 0.0 1.0 0.00 0.00 0.00 95 1007.6
20260904055521 73 141 0.0 2.0 0.00 0.00 0.00 95 1007.5
20260904055020 74 181 0.0 2.0 0.00 0.00 0.00 95 1007.5
20260904054522 74 200 0.0 2.0 0.00 0.00 0.00 95 1007.3
20260904054018 73 179 0.0 1.0 0.00 0.00 0.00 95 1007.3
20260904053521 74 242 0.0 1.0 0.00 0.00 0.00 95 1007.3
20260904053014 74 214 0.0 1.0 0.00 0.00 0.00 95 1007.2
20260904052513 74 246 0.0 1.0 0.00 0.00 0.00 94 1007.2
20260904052014 74 243 0.0 1.0 0.00 0.00 0.00 94 1007.3
20260904051510 74 242 0.0 1.0 0.00 0.00 0.00 94 1007.2
20260904051013 74 243 0.0 1.0 0.00 0.00 0.00 94 1007.2
20260904050507 74 238 0.0 1.0 0.00 0.00 0.00 93 1007.2
20260904050006 74 242 0.0 1.0 0.00 0.00 0.00 93 1007.1
20260904045507 74 238 0.0 1.0 0.00 0.00 0.00 93 1007.1
20260904045008 74 245 0.0 1.0 0.00 0.00 0.00 93 1007.1
20260904044508 74 243 0.0 1.0 0.00 0.00 0.00 92 1007.1
20260904044005 74 198 0.0 2.0 0.00 0.00 0.00 92 1007.1
20260904043504 74 242 0.0 2.0 0.00 0.00 0.00 92 1007.2
20260904043004 75 248 0.0 2.0 0.00 0.00 0.00 91 1007.2
20260904042504 75 207 0.0 1.0 0.00 0.00 0.00 91 1007.2
20260904042003 75 271 0.0 4.0 0.00 0.00 0.00 91 1007.1
20260904041504 75 226 0.0 4.0 0.00 0.00 0.00 90 1007.1
20260904041003 75 242 0.0 3.0 0.00 0.00 0.00 90 1007.2
20260904040503 75 145 0.0 1.0 0.00 0.00 0.00 90 1007.2
20260904040003 75 226 0.0 2.0 0.00 0.00 0.00 89 1007.1
20260904035503 75 174 0.0 2.0 0.00 0.00 0.00 89 1007.1
20260904035003 75 233 0.0 2.0 0.00 0.00 0.00 89 1007.1
20260904034503 76 195 0.0 2.0 0.00 0.00 0.00 88 1007.2
20260904034003 76 215 0.0 2.0 0.00 0.00 0.00 88 1007.2
20260904033503 76 277 0.0 4.0 0.00 0.00 0.00 88 1007.2
20260904033002 76 214 0.0 4.0 0.00 0.00 0.00 87 1007.1
20260904032502 76 243 0.0 4.0 0.00 0.00 0.00 87 1007.1
20260904032003 76 238 0.0 4.0 0.00 0.00 0.00 87 1007.1
20260904031502 76 208 0.0 4.0 0.00 0.00 0.00 86 1007.1
20260904031002 77 298 1.0 4.0 0.00 0.00 0.00 86 1007.2
20260904030501 77 158 0.0 4.0 0.00 0.00 0.00 86 1007.2
20260904030005 77 222 0.0 4.0 0.00 0.00 0.00 85 1007.2
20260904025501 77 240 0.0 5.0 0.00 0.00 0.00 85 1007.2
20260904025001 77 274 1.0 6.0 0.00 0.00 0.00 85 1007.2
20260904024601 77 212 1.0 6.0 0.00 0.00 0.00 84 1007.1
20260904024500 77 240 1.0 7.0 0.00 0.00 0.00 84 1007.1
20260904024001 77 249 1.0 7.0 0.00 0.00 0.00 84 1007.1
20260904023600 77 264 1.0 7.0 0.00 0.00 0.00 83 1007.1
20260904023059 77 162 2.0 7.0 0.00 0.00 0.00 83 1007.1
20260904022600 78 169 1.0 7.0 0.00 0.00 0.00 83 1007.0
20260904022058 78 165 1.0 5.0 0.00 0.00 0.00 83 1006.9
20260904021558 78 148 1.0 5.0 0.00 0.00 0.00 83 1007.0
20260904021057 78 225 0.0 5.0 0.00 0.00 0.00 82 1006.8
20260904020559 78 225 1.0 5.0 0.00 0.00 0.00 82 1006.8
20260904020057 78 190 0.0 3.0 0.00 0.00 0.00 81 1006.9
20260904015557 78 109 0.0 3.0 0.00 0.00 0.00 81 1006.9
20260904015055 78 128 0.0 3.0 0.00 0.00 0.00 81 1006.9
20260904014611 78 177 0.0 2.0 0.00 0.00 0.00 80 1006.8
20260904014056 79 99 0.0 2.0 0.00 0.00 0.00 80 1006.8
20260904013553 79 179 0.0 2.0 0.00 0.00 0.00 79 1006.7
20260904013053 79 34 0.0 2.0 0.00 0.00 0.00 79 1006.6
20260904012556 79 120 0.0 3.0 0.00 0.00 0.00 78 1006.7
20260904012052 79 152 0.0 3.0 0.00 0.00 0.00 78 1006.5
20260904011552 80 143 0.0 4.0 0.00 0.00 0.00 78 1006.4
20260904011052 80 174 0.0 4.0 0.00 0.00 0.00 77 1006.3
20260904010552 80 187 0.0 5.0 0.00 0.00 0.00 77 1006.3
20260904010052 80 162 2.0 5.0 0.00 0.00 0.00 76 1006.3
20260904005553 81 174 0.0 4.0 0.00 0.00 0.00 75 1006.3
20260904005051 81 186 1.0 6.0 0.00 0.00 0.00 74 1006.3
20260904004551 82 184 1.0 6.0 0.00 0.00 0.00 73 1006.3
20260904004053 82 238 2.0 5.0 0.00 0.00 0.00 72 1006.3
20260904003552 82 224 1.0 4.0 0.00 0.00 0.00 71 1006.3
20260904003050 83 248 0.0 8.0 0.00 0.00 0.00 70 1006.2
20260904002553 83 244 1.0 8.0 0.00 0.00 0.00 69 1006.2
20260904002051 84 143 0.0 7.0 0.00 0.00 0.00 69 1006.2
20260904001550 84 170 1.0 6.0 0.00 0.00 0.00 69 1006.2
20260904001050 84 215 0.0 8.0 0.00 0.00 0.00 69 1006.2
20260904000553 84 240 2.0 10.0 0.00 0.00 0.00 69 1006.3
20260904000051 83 223 3.0 10.0 0.00 0.00 0.00 70 1006.3
20260903235553 83 283 2.0 8.0 0.00 0.00 0.00 70 1006.4
20260903235049 83 222 1.0 5.0 0.00 0.00 0.00 70 1006.4
20260903234550 83 252 1.0 4.0 0.00 0.00 0.00 70 1006.5
20260903234050 84 141 0.0 3.0 0.00 0.00 0.00 70 1006.5
20260903233550 84 193 0.0 3.0 0.00 0.00 0.00 70 1006.6
20260903233050 84 225 0.0 3.0 0.00 0.00 0.00 69 1006.6
20260903232550 84 248 0.0 3.0 0.00 0.00 0.00 68 1006.6
20260903232052 84 214 1.0 5.0 0.00 0.00 0.00 67 1006.5
20260903231555 85 248 0.0 8.0 0.00 0.00 0.00 67 1006.4
20260903231048 84 264 3.0 8.0 0.00 0.00 0.00 67 1006.3
20260903230548 85 179 2.0 7.0 0.00 0.00 0.00 68 1006.2
20260903230051 85 170 1.0 9.0 0.00 0.00 0.00 68 1006.0
20260903225548 85 195 2.0 9.0 0.00 0.00 0.00 68 1005.9
20260903225049 85 252 1.0 8.0 0.00 0.00 0.00 69 1005.6
20260903224548 85 174 1.0 8.0 0.00 0.00 0.00 69 1005.6
20260903224048 85 210 1.0 9.0 0.00 0.00 0.00 68 1005.6
20260903223548 85 257 2.0 9.0 0.00 0.00 0.00 68 1005.6
20260903223048 85 198 2.0 12.0 0.00 0.00 0.00 67 1005.4
20260903222550 86 167 4.0 13.0 0.00 0.00 0.00 66 1005.5
20260903222047 86 166 6.0 12.0 0.00 0.00 0.00 66 1005.2
20260903221546 85 193 3.0 11.0 0.00 0.00 0.00 68 1005.5
20260903221044 85 78 1.0 11.0 0.00 0.00 0.00 69 1005.6
20260903220544 84 244 2.0 13.0 0.00 0.00 0.00 69 1005.8
20260903220048 84 200 4.0 13.0 0.00 0.00 0.00 68 1005.9
20260903215545 85 159 3.0 14.0 0.00 0.00 0.00 68 1005.8
20260903215043 84 277 2.0 14.0 0.00 0.00 0.00 68 1006.0
20260903214545 84 225 2.0 9.0 0.00 0.00 0.00 69 1006.0
20260903214042 84 185 4.0 11.0 0.00 0.00 0.00 69 1005.9
20260903213542 84 160 4.0 11.0 0.00 0.00 0.00 69 1006.0
20260903213042 84 195 3.0 14.0 0.00 0.00 0.00 68 1006.1
20260903212541 84 290 3.0 14.0 0.00 0.00 0.00 67 1006.0
20260903212041 85 181 1.0 6.0 0.00 0.00 0.00 67 1006.1
20260903211541 85 267 2.0 6.0 0.00 0.00 0.00 66 1006.1
20260903211041 86 264 1.0 7.0 0.00 0.00 0.00 67 1006.1
20260903210541 86 248 3.0 10.0 0.00 0.00 0.00 65 1006.2
20260903210044 86 270 5.0 12.0 0.00 0.00 0.00 66 1006.0
20260903205541 86 231 3.0 13.0 0.00 0.00 0.00 68 1006.0
20260903205040 85 245 5.0 13.0 0.00 0.00 0.00 67 1006.0
20260903204540 84 315 3.0 14.0 0.00 0.00 0.00 69 1006.2
20260903204043 84 267 6.0 14.0 0.00 0.00 0.00 69 1006.1
20260903203540 84 260 5.0 11.0 0.00 0.00 0.00 69 1006.1
20260903203039 84 264 4.0 12.0 0.00 0.00 0.00 67 1006.1
20260903202541 84 282 4.0 13.0 0.00 0.00 0.00 67 1006.1
20260903202039 84 222 5.0 13.0 0.00 0.00 0.00 67 1006.1
20260903201539 84 243 2.0 12.0 0.00 0.00 0.00 68 1006.2
20260903201041 84 200 4.0 12.0 0.00 0.00 0.00 67 1006.3
20260903200538 85 85 5.0 12.0 0.00 0.00 0.00 66 1006.1
20260903200037 85 160 5.0 11.0 0.00 0.00 0.00 65 1006.2
20260903195539 86 60 3.0 9.0 0.00 0.00 0.00 64 1006.3
20260903195036 86 226 3.0 8.0 0.00 0.00 0.00 65 1006.3
20260903194534 86 290 2.0 13.0 0.00 0.00 0.00 65 1006.4
20260903194036 86 190 6.0 13.0 0.00 0.00 0.00 64 1006.6
20260903193533 86 211 4.0 13.0 0.00 0.00 0.00 65 1006.7
20260903193032 86 148 6.0 12.0 0.00 0.00 0.00 64 1006.9
20260903192532 85 303 2.0 11.0 0.00 0.00 0.00 66 1006.7
20260903192035 84 176 4.0 11.0 0.00 0.00 0.00 66 1006.6
20260903191546 84 197 4.0 10.0 0.00 0.00 0.00 66 1006.8
20260903191033 83 204 1.0 9.0 0.00 0.00 0.00 67 1006.8
20260903190531 83 255 2.0 9.0 0.00 0.00 0.00 67 1007.0
20260903190031 83 261 3.0 9.0 0.00 0.00 0.00 67 1007.0
20260903185530 83 284 2.0 12.0 0.00 0.00 0.00 67 1006.9
20260903185033 83 269 4.0 12.0 0.00 0.00 0.00 67 1007.0
20260903184541 84 222 2.0 7.0 0.00 0.00 0.00 66 1007.0
20260903184032 84 219 3.0 8.0 0.00 0.00 0.00 65 1007.2
20260903183528 84 255 2.0 10.0 0.00 0.00 0.00 65 1007.4
20260903183028 85 267 4.0 11.0 0.00 0.00 0.00 64 1007.5
20260903182529 85 307 3.0 13.0 0.00 0.00 0.00 64 1007.5
20260903182027 85 260 5.0 13.0 0.00 0.00 0.00 62 1007.5
20260903181527 86 212 5.0 11.0 0.00 0.00 0.00 61 1007.5
20260903181027 86 188 5.0 15.0 0.00 0.00 0.00 62 1007.5
20260903180527 86 217 4.0 9.0 0.00 0.00 0.00 65 1007.3
20260903180032 85 284 2.0 9.0 0.00 0.00 0.00 65 1007.4
20260903175524 85 153 1.0 7.0 0.00 0.00 0.00 66 1007.5
20260903175023 84 214 2.0 8.0 0.00 0.00 0.00 66 1007.5
20260903174522 84 252 2.0 8.0 0.00 0.00 0.00 66 1007.7
20260903174022 84 186 4.0 11.0 0.00 0.00 0.00 66 1007.8
20260903173521 83 156 2.0 11.0 0.00 0.00 0.00 68 1007.8
20260903173022 83 160 4.0 12.0 0.00 0.00 0.00 67 1007.9
20260903172522 82 245 3.0 8.0 0.00 0.00 0.00 67 1007.9
20260903172020 82 231 4.0 8.0 0.00 0.00 0.00 66 1008.0
20260903171521 83 181 2.0 8.0 0.00 0.00 0.00 66 1008.0
20260903171019 83 134 2.0 14.0 0.00 0.00 0.00 65 1007.9
20260903170519 84 236 5.0 14.0 0.00 0.00 0.00 62 1008.0
20260903170020 84 200 2.0 10.0 0.00 0.00 0.00 63 1008.1
20260903165518 84 263 3.0 10.0 0.00 0.00 0.00 62 1008.2
20260903165019 85 211 1.0 10.0 0.00 0.00 0.00 61 1008.1
20260903164517 85 239 2.0 9.0 0.00 0.00 0.00 62 1008.2
20260903164017 85 191 3.0 9.0 0.00 0.00 0.00 62 1008.2
20260903163516 85 184 1.0 9.0 0.00 0.00 0.00 61 1008.3
20260903163016 85 236 2.0 7.0 0.00 0.00 0.00 61 1008.3
20260903162515 84 243 3.0 7.0 0.00 0.00 0.00 63 1008.3
20260903162013 84 193 2.0 11.0 0.00 0.00 0.00 63 1008.2
20260903161512 83 252 2.0 11.0 0.00 0.00 0.00 64 1008.3
20260903161011 83 240 2.0 10.0 0.00 0.00 0.00 66 1008.3
20260903160510 83 246 1.0 8.0 0.00 0.00 0.00 69 1008.3
20260903160013 82 92 2.0 8.0 0.00 0.00 0.00 70 1008.4
20260903155510 82 163 1.0 8.0 0.00 0.00 0.00 71 1008.5
20260903155006 81 176 1.0 11.0 0.00 0.00 0.00 72 1008.5
20260903154506 81 187 4.0 11.0 0.00 0.00 0.00 70 1008.4
20260903154004 81 235 1.0 10.0 0.00 0.00 0.00 73 1008.4
20260903153502 80 232 3.0 10.0 0.00 0.00 0.00 73 1008.5
20260903153101 80 97 4.0 7.0 0.00 0.00 0.00 74 1008.5
20260903152600 80 143 2.0 7.0 0.00 0.00 0.00 75 1008.4
20260903152102 79 194 2.0 6.0 0.00 0.00 0.00 76 1008.4
20260903151558 79 136 1.0 9.0 0.00 0.00 0.00 78 1008.5
20260903151056 79 311 4.0 9.0 0.00 0.00 0.00 77 1008.4
20260903150556 79 231 3.0 7.0 0.00 0.00 0.00 79 1008.4
20260903150055 79 100 2.0 7.0 0.00 0.00 0.00 80 1008.5
20260903145554 78 75 2.0 7.0 0.00 0.00 0.00 81 1008.5
20260903145053 77 174 0.0 6.0 0.00 0.00 0.00 84 1008.4
20260903144552 76 117 2.0 7.0 0.00 0.00 0.00 84 1008.3
20260903144052 76 87 2.0 7.0 0.00 0.00 0.00 85 1008.4
20260903143548 75 111 3.0 7.0 0.00 0.00 0.00 85 1008.5
20260903143105 75 81 2.0 6.0 0.00 0.00 0.00 86 1008.4
20260903142546 75 124 2.0 7.0 0.00 0.00 0.00 87 1008.4
20260903142045 74 113 4.0 7.0 0.00 0.00 0.00 87 1008.5
20260903141544 74 89 0.0 7.0 0.00 0.00 0.00 89 1008.7